Tracking 25195 objects as of 21-Jan-2022
HD Live streaming from Space Station
objects crossing your sky now

STARLINK-1909

Track STARLINK-1909 now!
10-day predictions
STARLINK-1909 is classified as:


NORAD ID: 47550
Int'l Code: 2021-009C
Perigee: 553.1 km
Apogee: 555.5 km
Inclination: 53.1 °
Period: 95.6 minutes
Semi major axis: 6925 km
RCS: Unknown
Launch date: February 4, 2021
Source: United States (US)
Launch site: AIR FORCE EASTERN TEST RANGE (AFETR)
aabbcc
Your satellite tracking list
Your tracking list is empty




NASA's NSSDC Master Catalog

Two Line Element Set (TLE):
1 47550U 21009C   22020.49758476  .00008045  00000-0  55831-3 0  9991
2 47550  53.0547 296.6568 0001738  67.6654 292.4519 15.06404905 53602
Source of the keplerian elements: AFSPC